[[{"header":{"parameterUnit":"m.s-1","parameterCategory":1,"la1":30.2991,"la2":30.254,"lo1":-89.0895,"lo2":-89.0444,"dy":0.0017,"dx":0.0017,"nx":28,"ny":28,"refTime":"2024-06-09T21:00:00:Z","depth":0,"parameterNumber":2,"parameterNumberName":"U-component_of_WINDS"},"data":[0,0,0,0,0,0,0,0,0,0,0,0,0,0,0,0,0,0,0,0,0,0,0,0,0,0,0,0,0,0,0,0,0,0,0,0,0,0,0,0,0,0,0,0,0,0,0,0,0,0,0,0,0,0,0,0,0,0,1.3155,1.3156,0,1.3185,1.3185,1.3185,1.3178,1.3178,1.3177,1.3177,1.3209,1.321,1.3211,0,0,0,0,0,0,0,0,0,0,0,0,0,1.3094,1.3096,1.3155,1.3156,1.3156,1.3185,1.3185,1.3186,1.3179,1.3178,1.3177,1.3177,1.3208,1.321,1.3212,0,0,0,0,0,0,0,0,0,0,0,0,0,1.3122,1.3096,1.3155,1.3156,1.3156,1.3185,1.3185,1.3186,1.3179,1.3178,1.3177,1.3176,1.3208,1.321,1.3212,1.3242,0,0,1.3218,1.3219,0,0,0,0,0,0,0,0,1.3121,1.3124,1.3155,1.3156,1.3156,1.3177,1.3175,1.3205,1.3179,1.317,1.3177,1.3176,1.3199,1.3202,1.3209,1.3243,1.3245,1.3218,1.322,1.322,1.3221,0,0,0,0,0,0,0,1.3119,1.3123,1.3167,1.3156,1.3156,1.3155,1.3158,1.3181,1.3189,1.3171,1.317,1.3174,1.3199,1.3207,1.321,1.3245,1.3218,1.322,1.3221,1.3222,1.3306,1.3307,0,0,0,0,0,0,1.3116,1.3121,1.3166,1.3168,1.3136,1.3157,1.316,1.3171,1.3189,1.3191,1.3175,1.3174,1.3204,1.3207,1.3211,1.3248,1.322,1.3222,1.3224,1.3305,1.3306,1.3308,0,0,0,0,0,0,1.3115,1.312,1.3165,1.3145,1.315,1.3159,1.3171,1.3172,1.318,1.3192,1.3193,1.3181,1.3204,1.3208,1.3234,1.3249,1.3223,1.3225,1.3304,1.3306,1.3307,1.3322,0,0,0,0,0,0,1.3113,1.312,1.3131,1.3145,1.3151,1.3187,1.3172,1.3173,1.3184,1.3183,1.3198,1.32,1.3203,1.3231,1.3236,1.3251,1.3227,1.3303,1.3305,1.3307,1.332,1.3324,1.3327,0,0,0,0,0,1.3111,1.3134,1.3131,1.3137,1.3165,1.3188,1.3192,1.3194,1.3185,1.3197,1.3204,1.32,1.3246,1.3234,1.324,1.3256,1.3302,1.3304,1.3306,1.3319,1.3323,1.3327,0,0,0,0,0,0,1.3122,1.3136,1.3133,1.3161,1.3173,1.3187,1.3201,1.3199,1.3214,1.3212,1.3215,1.3219,1.3246,1.3253,1.3239,1.3286,1.3273,1.3276,1.328,1.3284,1.3288,1.3286,1.3229,0,0,0,0,0,1.3127,1.3144,1.3156,1.3179,1.3185,1.3192,1.3202,1.3203,1.3216,1.3222,1.3231,1.3244,1.3262,1.3273,1.329,1.3321,1.3325,1.3335,1.3338,1.3341,1.3344,1.3362,1.3366,1.3315,1.3315,1.3315,0,0,1.3139,1.3149,1.3159,1.3182,1.3191,1.3209,1.3197,1.3216,1.323,1.3225,1.325,1.3257,1.3272,1.3301,1.3314,1.3308,1.3359,1.3343,1.3345,1.3347,1.3364,1.3369,1.3374,1.3316,1.3316,1.3316,0,0,1.317,1.3178,1.32,1.3209,1.3224,1.3229,1.3234,1.3247,1.3252,1.3277,1.3274,1.3291,1.3321,1.3332,1.3342,1.3377,1.3374,1.3382,1.34,1.3417,1.3421,1.3425,1.3439,1.3443,1.3385,1.3385,1.3386,0,1.3183,1.3209,1.3211,1.3231,1.3241,1.3237,1.3259,1.3268,1.3288,1.3296,1.3288,1.3326,1.3336,1.3368,1.3377,1.3384,1.3391,1.3381,1.342,1.3424,1.3428,1.3441,1.3446,1.3386,1.3386,1.3386,1.3386,0,1.3225,1.3244,1.3259,1.3278,1.329,1.3311,1.3316,1.3328,1.3328,1.3333,1.336,1.3371,1.3391,1.3398,1.3398,1.343,1.3426,1.342,1.3407,1.3433,1.3446,1.3451,1.3388,1.3388,1.3387,1.3387,0,0,1.3264,1.3283,1.3289,1.3298,1.3314,1.3329,1.3349,1.3368,1.3379,1.3392,1.3411,1.3436,1.3431,1.3442,1.3443,1.3458,1.3486,1.345,1.345,1.3457,1.3523,1.3529,1.3535,1.3484,1.3485,1.3486,1.3523,0,1.3297,1.3334,1.3336,1.3369,1.3387,1.3383,1.3401,1.3413,1.3419,1.3435,1.3442,1.346,1.3451,1.3458,1.3472,1.348,1.35,1.3477,1.3502,1.3503,1.3499,1.3541,1.3547,1.3581,1.3527,1.3528,1.3529,0,1.3341,1.3355,1.3391,1.3405,1.3412,1.3428,1.3446,1.3461,1.3475,1.3478,1.3491,1.349,1.3512,1.3498,1.3529,1.3514,1.3524,1.353,1.3531,1.3534,1.3518,1.3546,1.3591,1.3597,1.3536,1.3535,1.3535,0,1.3367,1.3395,1.342,1.3428,1.3444,1.3456,1.3464,1.3477,1.3488,1.3504,1.3511,1.3529,1.3539,1.3554,1.3558,1.3547,1.359,1.3576,1.3594,1.3594,1.3604,1.3603,1.3652,1.3609,1.3609,1.3609,1.3608,0,1.3404,1.3426,1.3432,1.3448,1.3472,1.3475,1.3499,1.3506,1.3518,1.3535,1.3533,1.3549,1.3554,1.3571,1.3575,1.3601,1.3605,1.3609,1.361,1.361,1.3609,1.3617,1.3615,1.361,1.361,1.3609,1.3609,0,1.3437,1.3442,1.347,1.3483,1.3487,1.3505,1.3517,1.3532,1.3537,1.3559,1.3564,1.3573,1.3593,1.3599,1.3624,1.3626,1.3657,1.3655,1.3652,1.3652,1.3671,1.3669,1.3727,1.3735,1.3686,1.3686,1.3687,0,1.3461,1.3478,1.3493,1.3505,1.3513,1.3531,1.3542,1.3545,1.3558,1.3575,1.3588,1.3608,1.3625,1.3657,1.3666,1.3685,1.3685,1.3704,1.3687,1.3687,1.3686,1.3685,1.3687,1.3707,1.3707,1.3708,1.3708,0,1.3503,1.3505,1.3522,1.3539,1.3553,1.3567,1.3581,1.359,1.3595,1.3609,1.363,1.3642,1.3667,1.3688,1.3707,1.3715,1.3713,1.3713,1.3718,1.3719,1.3717,1.3719,1.3661,1.3712,1.3712,1.3711,1.3711,1.3711,1.3533,1.3548,1.3562,1.358,1.3591,1.3604,1.3619,1.3626,1.3643,1.3664,1.3664,1.3687,1.3701,1.3727,1.3736,1.3755,1.3749,1.3757,1.3759,1.3761,1.3763,1.3713,1.3758,1.3758,1.3758,1.3758,1.3758,0,1.3576,1.3585,1.3602,1.3621,1.3636,1.3631,1.3646,1.3659,1.3679,1.3692,1.3708,1.3733,1.3752,1.3762,1.3782,1.3795,1.3794,1.38,1.38,1.3802,1.3766,1.376,1.38,1.38,1.38,1.38,1.38,1.38,1.36,1.3626,1.3629,1.366,1.3669,1.3691,1.37,1.3712,1.3722,1.3749,1.3765,1.3772,1.3784,1.3805,1.3823,1.3826,1.3833,1.384,1.3842,1.3809,1.3804,1.38,1.3794,1.3841,1.3841,1.3876,1.3877,1.3877]},{"header":{"parameterUnit":"m.s-1","parameterCategory":1,"la1":30.2991,"la2":30.254,"lo1":-89.0895,"lo2":-89.0444,"dy":0.0017,"dx":0.0017,"nx":28,"ny":28,"refTime":"2024-06-09T21:00:00:Z","depth":0,"parameterNumber":3,"parameterNumberName":"V-component_of_WINDS"},"data":[0,0,0,0,0,0,0,0,0,0,0,0,0,0,0,0,0,0,0,0,0,0,0,0,0,0,0,0,0,0,0,0,0,0,0,0,0,0,0,0,0,0,0,0,0,0,0,0,0,0,0,0,0,0,0,0,0,0,0.6097,0.6097,0,0.6136,0.6137,0.6137,0.6174,0.6175,0.6175,0.6175,0.6215,0.6216,0.6217,0,0,0,0,0,0,0,0,0,0,0,0,0,0.6052,0.6053,0.6097,0.6097,0.6098,0.6136,0.6137,0.6137,0.6174,0.6175,0.6175,0.6176,0.6215,0.6216,0.6217,0,0,0,0,0,0,0,0,0,0,0,0,0,0.608,0.6053,0.6097,0.6121,0.6123,0.6136,0.6137,0.6137,0.6174,0.6175,0.6175,0.6176,0.6215,0.6216,0.6217,0.6209,0,0,0.622,0.622,0,0,0,0,0,0,0,0,0.6078,0.6081,0.6117,0.6119,0.6122,0.6151,0.6136,0.6161,0.6174,0.6155,0.6176,0.6176,0.6193,0.6196,0.6202,0.621,0.6212,0.622,0.622,0.6221,0.6221,0,0,0,0,0,0,0,0.6076,0.608,0.6112,0.6117,0.612,0.6129,0.6134,0.6141,0.617,0.6156,0.6159,0.6163,0.6195,0.6201,0.6203,0.6213,0.622,0.622,0.6221,0.6221,0.6216,0.6216,0,0,0,0,0,0,0.6071,0.6078,0.6111,0.6113,0.6101,0.6129,0.6135,0.6141,0.617,0.6175,0.6163,0.6165,0.6199,0.6202,0.6205,0.6197,0.6221,0.6221,0.6222,0.6217,0.6216,0.6215,0,0,0,0,0,0,0.6069,0.6073,0.6109,0.6096,0.6102,0.613,0.6136,0.6141,0.6147,0.6174,0.618,0.6164,0.62,0.6203,0.6207,0.6199,0.6222,0.6223,0.6218,0.6217,0.6216,0.6181,0,0,0,0,0,0,0.6068,0.6073,0.607,0.6096,0.6102,0.6111,0.6136,0.6142,0.6149,0.6152,0.6177,0.6181,0.62,0.6206,0.6208,0.62,0.6223,0.6219,0.6217,0.6216,0.6183,0.6179,0.6175,0,0,0,0,0,0.6066,0.6059,0.607,0.6073,0.61,0.6111,0.6114,0.6137,0.6148,0.6146,0.6163,0.6181,0.6199,0.6206,0.6209,0.6201,0.6219,0.6218,0.6216,0.6185,0.618,0.6175,0,0,0,0,0,0,0.6031,0.6062,0.6075,0.6076,0.609,0.6117,0.6115,0.6131,0.6142,0.6145,0.6172,0.6177,0.6178,0.619,0.6197,0.6195,0.6212,0.6211,0.6187,0.6182,0.6178,0.6175,0.6224,0,0,0,0,0,0.6023,0.6029,0.6057,0.6055,0.6061,0.6087,0.6092,0.6108,0.6125,0.6131,0.6149,0.6163,0.6173,0.6178,0.6188,0.6185,0.6191,0.6181,0.6178,0.6174,0.6173,0.6172,0.6168,0.621,0.621,0.621,0,0,0.6007,0.6025,0.6027,0.6048,0.6061,0.6067,0.6092,0.6097,0.6102,0.6132,0.6137,0.615,0.6168,0.6169,0.617,0.6179,0.6163,0.6172,0.6169,0.617,0.617,0.6166,0.6162,0.6209,0.6209,0.6209,0,0,0.598,0.5995,0.5994,0.6007,0.6027,0.6044,0.6044,0.6068,0.6078,0.6084,0.6106,0.6112,0.6127,0.6139,0.6148,0.6125,0.6142,0.6128,0.6108,0.6106,0.6103,0.61,0.6092,0.6089,0.6127,0.6126,0.6126,0,0.5958,0.5968,0.5992,0.5996,0.6004,0.6032,0.6031,0.6043,0.6065,0.6069,0.6079,0.6099,0.6114,0.6117,0.6111,0.6117,0.6118,0.6125,0.6102,0.6099,0.6097,0.6089,0.6086,0.6125,0.6125,0.6125,0.6125,0,0.5939,0.5946,0.5943,0.5963,0.5971,0.5973,0.5997,0.6002,0.6017,0.6033,0.6038,0.6056,0.607,0.6072,0.6087,0.6077,0.6082,0.6097,0.6114,0.609,0.6084,0.6081,0.6122,0.6123,0.6123,0.6124,0,0,0.5891,0.5925,0.5923,0.5933,0.5957,0.5962,0.5965,0.5979,0.5983,0.5997,0.6,0.6012,0.6025,0.6034,0.6051,0.605,0.603,0.6064,0.6065,0.6057,0.6021,0.6009,0.6006,0.6042,0.6041,0.6041,0.6019,0,0.5868,0.5875,0.5897,0.5897,0.5904,0.593,0.5932,0.5947,0.5961,0.5969,0.5985,0.5993,0.601,0.6016,0.6016,0.6033,0.6023,0.6035,0.6044,0.6044,0.6038,0.6002,0.5991,0.5969,0.6016,0.6016,0.6016,0,0.5843,0.5855,0.5856,0.5879,0.5883,0.5885,0.5899,0.5906,0.5923,0.5934,0.5944,0.5962,0.5966,0.5982,0.5988,0.5995,0.6001,0.6009,0.6009,0.6011,0.6028,0.6003,0.5963,0.596,0.6012,0.6012,0.6013,0,0.5807,0.5824,0.5827,0.5834,0.5862,0.5862,0.5874,0.5891,0.5898,0.5911,0.5915,0.5928,0.5935,0.5944,0.5965,0.5975,0.5968,0.5987,0.5977,0.5977,0.5974,0.5974,0.5935,0.5978,0.5978,0.5978,0.5978,0,0.578,0.5779,0.5811,0.5813,0.5813,0.5838,0.5837,0.5851,0.5866,0.5871,0.5894,0.5898,0.5926,0.5932,0.5949,0.5951,0.5954,0.5963,0.5967,0.596,0.5959,0.5964,0.5966,0.5977,0.5977,0.5978,0.5978,0,0.574,0.5762,0.5766,0.5792,0.5798,0.5797,0.5818,0.5821,0.5837,0.5842,0.5845,0.587,0.5879,0.5901,0.5916,0.5927,0.5925,0.5933,0.5919,0.5922,0.5911,0.5911,0.5873,0.5869,0.5915,0.5914,0.5914,0,0.572,0.5721,0.5746,0.5751,0.5761,0.5769,0.5776,0.58,0.5807,0.5826,0.5826,0.5837,0.5847,0.586,0.588,0.5891,0.59,0.5885,0.5901,0.5895,0.5899,0.5898,0.5898,0.5881,0.5881,0.588,0.588,0,0.5684,0.5694,0.5704,0.5717,0.5725,0.5736,0.5749,0.5751,0.5779,0.5785,0.5795,0.5802,0.5818,0.5828,0.5843,0.5854,0.5871,0.5875,0.5873,0.5866,0.5858,0.5862,0.5909,0.5875,0.5876,0.5876,0.5876,0.5877,0.5654,0.5655,0.5673,0.5682,0.5694,0.5706,0.5709,0.5726,0.5734,0.5749,0.5763,0.5771,0.5788,0.5809,0.5819,0.5826,0.5834,0.5832,0.5832,0.583,0.5827,0.5857,0.5828,0.5828,0.5829,0.5829,0.5829,0,0.5618,0.5631,0.5639,0.5656,0.5664,0.568,0.5694,0.5699,0.5706,0.5721,0.573,0.5741,0.5751,0.5772,0.5784,0.5785,0.5793,0.5787,0.5787,0.579,0.5819,0.5819,0.578,0.578,0.578,0.578,0.578,0.578,0.56,0.5603,0.5615,0.5624,0.5637,0.5646,0.5653,0.5663,0.5675,0.5686,0.5694,0.5708,0.5724,0.5738,0.5748,0.5753,0.5756,0.5748,0.5756,0.5783,0.5787,0.5792,0.5792,0.5748,0.5748,0.5726,0.5726,0.5726]}]]